Weather in Semenivka

Ukraine / Poltava Region     49°42′33″N   33°33′14″E
temp.,
°C
wind,
m/s
gust,
m/s
humid.,
%
clouds,
%
prec.,
mm/h
press.,
hPa
HPBL,
m
19 april, mon
mon1900:00+4n3591100 0.0 1017126
03:00+4n3495100 0.0 101791
06:00+5nne2590100 0.0 1017113
09:00+8ne3573100 0.0 1017743
12:00+10ne4559100 0.0 10161369
15:00+11ne3456100 0.0 10161247
18:00+12e345655 0.0 1015761
21:00+8ese116980 0.0 101511
20 april, tue
tue2000:00+7ne117783 0.0 101412
03:00+5ne3386100 0.0 101243
06:00+4ne3692100 0.0 1011113
09:00+9ne5771100 0.0 1009393
12:00+9nne5879100 0.3 1007493
15:00+12n7970100 0.3 10041022
18:00+9n4790100 2.1 1003382
21:00+9nw4789100 2.5 1003231
21 april, wed
wed2100:00+8nw4994100 0.4 1004364
03:00+7wnw5995100 0.5 1006352
06:00+7w4795100 0.1 1009474
09:00+7w568898 0.1 1011533
12:00+10wsw566683 0.1 10121200
15:00+12w575494 0.4 10131634
18:00+11w246583 0.0 1014226
21:00+8s3474100 0.0 101661
22 april, thu
thu2200:00+7s367899 0.0 101694
03:00+6ssw378480 0.0 1016128
06:00+6ssw368870 0.0 1017117
09:00+11ssw586985 0.1 1018444
12:00+15sw685429 0.1 10181363
15:00+17sw794475 0.1 10172344
18:00+15s6105760 0.0 1017451
21:00+9ssw4117842 0.4 1019211
23 april, fri
fri2300:00+9s498216 0.1 1019155
03:00+8s410875 0.5 1018212
06:00+7s411905 0.0 1018234
09:00+12s710705 0.0 1017561
12:00+17ssw811515 0.0 10171648
15:00+17ssw81049100 0.0 10152123
18:00+14wsw596998 1.3 10151008
21:00+10w5990100 3.2 1015376